Temp
22 22 23 23 23 23 24 24 24 24 24 23 23 23 22 22 21 21 22 23 22 23 23 23 23 23 23 24 24 24 24 24 22 24 25 24 26 26 25 25 25 24 25
23 23 23 23 23 24 24 24 24 24 24 23 23 23 23 23 22 21 21 23 22 22 22 23 23 23 23 23 23 23 24 24 24 23 24 24 25 25 24 25 25 25 25
24 24 24 24 24 24 24 24 23 24 24 23 23 23 23 23 22 22 22 22 22 23 23 23 23 23 23 23 22 22 23 24 24 23 23 24 24 24 24 24 25 25 24
24 25 25 25 24 24 24 24 24 24 23 23 23 23 22 22 22 22 22 22 22 22 22 22 22 22 22 22 22 22 22 22 22 22 22 23 23 23 23 23 23 24 24
25 25 25 25 24 24 24 24 24 24 23 23 23 23 22 22 22 23 23 23 23 22 22 21 21 21 21 21 21 21 21 21 21 21 21 21 21 22 22 21 22 22 22
26 26 25 25 24 24 24 24 23 23 23 23 23 23 22 22 22 22 22 22 22 22 21 21 21 21 21 20 20 20 21 21 21 21 20 20 20 20 20 20 20 20 20
26 26 25 25 24 24 24 23 23 23 22 22 22 22 22 21 21 21 21 21 22 21 21 20 20 19 19 20 19 20 20 20 20 20 20 20 19 19 19 19 19 19 19
25 25 25 24 24 23 23 23 22 22 21 21 20 20 21 20 20 20 20 21 21 21 20 20 20 19 19 19 19 19 19 19 19 19 19 19 19 19 20 19 19 19 19
24 24 24 24 23 23 23 22 22 21 20 20 20 19 19 19 19 19 19 20 20 20 20 19 19 19 19 18 18 18 18 18 18 19 19 19 19 19 19 19 18 18 17
23 24 24 24 23 22 22 21 21 21 21 20 19 18 18 19 18 19 19 19 19 19 18 18 18 18 18 18 18 17 17 17 18 18 18 18 18 18 18 18 18 17 16
25 25 25 25 22 22 22 21 21 20 20 19 19 18 18 18 18 18 19 19 18 18 18 17 18 18 18 18 16 16 16 16 17 17 17 18 17 17 18 17 17 17 17
23 22 22 21 22 21 21 20 20 20 19 18 17 17 17 17 17 17 18 18 17 18 17 17 17 17 17 16 16 16 16 16 17 17 17 17 17 17 17 17 17 17 17
23 19 19 20 20 20 19 19 19 19 18 17 17 17 17 17 17 17 18 18 17 17 16 17 17 16 16 16 16 16 16 17 17 17 17 17 17 17 16 17 17 17 17
19 18 19 19 18 18 19 19 19 18 18 17 17 17 17 16 16 17 17 17 17 16 16 16 16 16 16 16 16 16 16 16 17 17 17 17 16 17 17 17 17 17 17
19 18 17 17 18 17 18 18 18 19 19 18 18 17 16 16 17 18 17 17 16 16 17 16 16 16 16 16 16 16 17 17 17 17 17 17 17 17 17 17 17 16 16
18 18 17 17 17 17 17 16 17 17 17 17 17 17 17 17 17 17 17 17 16 16 16 16 16 16 16 16 16 16 16 17 17 17 17 17 17 17 16 16 16 16 16
18 17 17 17 16 16 16 16 15 15 16 16 16 17 17 17 17 17 16 16 17 16 16 16 16 16 17 17 17 17 17 17 17 16 16 16 16 16 16 16 16 16 16
18 18 17 16 16 16 16 15 15 15 15 15 16 17 17 17 17 17 17 16 15 15 16 16 16 16 16 17 17 17 17 16 16 16 16 16 16 16 16 16 16 16 16
18 17 17 17 17 18 17 16 16 15 15 15 15 15 16 16 16 16 16 16 16 17 16 16 16 16 16 17 17 17 17 16 16 16 16 16 16 16 16 16 15 16 16
18 18 18 17 16 16 16 16 16 15 15 14 15 15 15 14 14 15 15 16 16 16 17 16 16 16 16 16 17 17 16 16 16 16 16 15 15 16 16 15 15 16 16
19 18 18 17 17 17 17 16 16 15 15 15 16 16 16 16 15 15 15 16 16 16 16 16 17 17 17 17 17 17 16 16 16 16 15 15 15 15 15 15 15 15 15
19 18 17 17 17 16 17 17 16 16 16 16 17 17 17 16 16 16 16 16 17 17 17 17 17 17 18 17 17 17 16 16 16 15 16 15 15 15 15 15 15 15 15
18 17 17 16 16 16 17 17 17 17 17 17 17 17 17 16 16 16 17 17 18 18 17 17 17 17 17 17 17 17 17 16 16 16 16 16 15 15 15 15 15 15 15
17 17 16 16 16 17 17 17 18 17 18 18 18 17 17 17 17 17 18 18 18 18 17 17 17 17 17 17 17 17 17 17 17 16 16 16 15 15 15 15 15 15 15
17 18 18 17 17 17 18 19 19 20 20 21 21 19 19 17 16 16 17 18 18 18 18 18 18 18 17 18 17 17 17 17 17 16 16 16 16 15 15 15 14 14 14
17 17 17 17 17 18 18 19 19 19 19 19 19 19 19 18 18 17 17 17 17 17 18 19 18 18 18 18 17 17 17 17 16 16 16 16 15 15 15 15 14 14 14
Height
766 768 770 773 775 778 780 781 783 784 787 787 787 788 790 792 792 794 797 799 802 804 806 807 808 810 811 812 813 813 812 813 814 813 812 812 813 816 819 821 822 824 825
762 766 768 770 773 775 778 781 782 783 786 788 788 790 789 791 792 792 794 796 798 801 803 805 806 806 808 809 810 811 811 812 812 811 812 811 812 815 817 817 819 820 822
759 762 765 768 770 773 776 779 781 782 784 786 787 790 791 791 792 795 795 794 796 798 799 801 802 803 805 806 808 809 809 810 810 810 811 812 812 812 813 814 816 818 821
755 759 763 766 768 771 774 777 780 780 782 784 786 788 789 790 791 793 794 794 795 796 798 799 799 801 802 803 805 807 808 809 809 808 809 810 811 812 811 812 813 815 816
752 755 759 763 768 771 773 777 779 780 782 783 785 787 789 790 791 792 792 793 794 796 798 797 798 800 801 802 804 805 805 807 809 809 809 809 809 809 810 811 813 814 814
749 752 757 762 766 770 773 777 779 781 781 783 784 786 787 789 791 792 792 792 793 794 796 797 798 800 801 803 804 805 804 804 806 808 810 811 810 810 811 812 813 813 814
746 750 755 759 764 767 771 775 778 780 782 784 785 786 786 788 789 791 792 792 793 794 795 797 798 799 801 802 803 804 805 805 805 806 807 808 809 810 812 812 812 813 812
743 748 753 756 760 765 770 773 777 780 782 783 785 786 786 787 787 787 789 792 793 795 797 798 798 798 799 801 801 802 803 805 805 805 806 806 807 807 809 810 811 810 810
742 746 751 753 757 762 766 769 772 776 781 783 786 788 788 788 788 788 788 790 792 794 797 798 797 797 798 798 798 799 800 801 802 803 804 806 806 806 806 806 808 811 810
736 741 744 749 755 757 762 766 770 773 777 781 785 787 788 788 788 788 788 789 791 794 796 797 797 797 796 796 796 796 797 798 800 801 802 803 804 804 805 805 805 807 810
732 737 742 742 746 753 759 763 767 770 775 780 783 786 787 787 787 788 787 787 790 793 795 796 796 797 796 795 794 796 796 796 797 799 799 800 801 802 803 804 805 805 807
732 733 741 745 746 751 756 762 765 769 773 779 782 785 785 786 786 788 786 786 790 793 794 795 795 795 796 795 795 796 796 797 796 797 798 799 800 802 802 802 804 803 803
727 729 742 742 746 749 754 761 765 768 772 776 780 782 783 784 784 787 785 784 789 793 794 795 794 795 796 796 797 797 797 797 797 797 798 799 800 800 801 802 801 801 801
726 733 736 739 741 747 753 759 764 767 770 774 777 779 781 783 784 785 785 786 789 792 793 794 793 793 794 795 795 797 797 798 798 798 798 799 800 800 800 801 801 801 801
733 733 737 737 737 742 749 756 761 766 768 771 774 777 779 781 783 783 785 786 788 789 788 792 792 792 792 794 795 795 797 797 798 798 798 797 799 801 800 800 800 801 800
730 730 733 735 740 745 747 752 757 762 766 769 772 775 778 779 781 783 785 787 788 789 789 788 789 790 790 793 794 795 796 797 797 799 798 798 799 799 800 799 801 800 800
719 726 731 736 738 744 750 751 752 759 762 766 768 772 775 777 779 782 783 784 785 786 786 785 786 787 788 788 789 792 794 795 796 797 797 797 798 797 798 799 800 801 800
717 719 729 732 735 738 744 749 752 756 760 762 765 768 770 774 777 780 781 782 783 783 783 782 784 785 786 787 787 790 791 793 794 795 795 796 796 796 797 798 798 799 799
704 712 723 729 734 735 739 745 750 754 757 759 762 766 769 772 774 776 777 777 778 779 778 778 780 782 784 785 786 787 788 790 791 792 793 794 794 795 795 795 796 796 796
713 717 722 727 730 732 737 741 745 750 753 755 758 761 764 767 769 770 772 774 774 774 774 774 775 778 779 781 783 784 785 786 787 789 790 791 792 793 793 793 793 793 794
712 717 719 724 726 730 734 737 741 746 749 749 750 753 757 760 761 764 767 768 768 769 769 770 772 773 774 777 778 780 781 782 783 785 786 788 789 789 790 790 791 791 792
712 714 718 719 724 728 731 733 738 742 744 745 744 746 750 755 756 758 760 762 763 765 766 766 768 769 770 771 773 775 776 778 779 780 781 783 785 785 786 787 787 788 789
713 714 717 719 722 726 730 731 733 735 736 738 739 741 743 745 748 751 754 756 758 760 761 763 764 764 766 768 769 770 771 772 773 775 777 777 778 779 781 782 783 785 785
715 716 718 719 723 724 725 727 727 728 730 731 733 734 735 737 740 743 747 750 753 755 756 757 759 760 762 763 764 765 766 767 768 770 771 771 773 776 776 777 778 779 781
717 717 716 717 718 720 722 723 722 725 726 726 728 730 730 733 736 738 741 746 748 749 750 750 753 754 756 757 759 760 761 761 762 764 765 766 767 769 771 772 774 775 776
717 719 716 716 717 717 719 721 720 723 724 725 727 727 728 730 733 735 738 740 742 745 745 745 746 748 748 750 752 753 755 756 757 758 759 761 762 763 764 765 768 770 771
Wind_Speed
23 24 22 21 19 19 19 13 15 12 10 11 11 11 11 9 7 8 15 18 18 17 14 13 14 12 9 6 5 3 4 10 8 6 3 13 12 21 19 16 18 22 23
27 25 23 19 19 19 18 17 13 11 10 8 10 10 13 11 12 10 19 15 14 14 13 11 8 6 9 9 7 7 5 4 4 4 1 4 8 9 16 13 14 13 16
25 24 22 20 21 18 20 16 13 11 10 9 9 10 12 12 12 10 9 10 11 11 11 12 11 11 10 6 6 6 8 10 5 4 3 3 2 4 8 10 10 14 14
26 25 23 22 24 20 19 19 15 12 15 14 13 12 12 12 11 10 9 9 8 6 6 6 5 5 5 5 4 3 4 4 5 7 7 6 6 3 5 5 8 10 11
28 28 26 23 22 23 22 20 17 17 16 15 15 13 12 11 10 9 9 9 10 9 9 11 11 10 8 7 6 5 3 4 5 5 3 2 2 4 4 2 4 3 2
29 26 27 23 26 26 24 20 17 16 14 14 14 13 10 8 7 6 8 9 8 8 12 11 11 9 7 6 5 3 2 1 1 2 4 6 4 4 2 1 1 1 2
31 30 28 27 28 29 27 24 21 18 16 16 15 12 10 7 5 4 5 7 10 12 12 11 10 8 5 3 2 1 1 2 2 3 3 2 4 5 4 2 2 3 5
31 33 28 29 33 32 29 25 21 17 16 17 14 11 8 5 6 7 7 8 11 10 9 7 5 4 1 3 5 6 5 1 4 5 4 4 4 2 4 6 5 5 7
29 32 32 32 36 32 28 25 22 20 15 14 12 9 6 7 6 7 9 10 11 11 8 6 3 2 1 3 4 5 4 6 4 3 4 4 4 4 4 4 2 1 2
34 37 36 37 37 34 30 27 24 20 17 15 14 9 6 5 5 6 8 9 11 11 9 8 5 2 2 6 3 3 4 4 3 5 4 3 1 2 3 3 3 4 1
39 37 38 39 36 34 31 28 25 21 17 16 15 11 8 5 4 4 6 8 9 11 10 9 5 2 4 3 1 3 2 2 2 3 1 3 5 7 4 3 1 1 1
36 31 29 24 28 32 32 29 24 21 21 22 19 15 9 5 4 3 5 7 6 9 11 9 4 1 1 1 1 3 3 1 1 5 9 11 10 6 3 2 1 1 3
27 10 24 26 29 32 34 29 24 24 29 25 22 17 13 11 9 6 5 5 6 10 8 6 4 3 3 2 3 4 3 5 10 11 8 4 4 5 6 5 4 4 6
30 30 28 31 31 31 29 25 24 28 28 24 19 16 14 13 12 8 8 7 8 12 9 6 4 4 3 4 4 3 2 3 3 5 5 6 4 2 4 3 4 4 7
20 20 23 28 32 28 24 24 26 25 24 23 19 15 13 11 17 12 10 11 11 10 8 8 7 8 6 6 6 5 5 4 4 4 4 5 7 4 2 3 1 3 5
21 21 25 25 23 24 27 24 21 17 16 13 12 11 12 13 18 18 16 14 12 11 10 10 11 10 9 14 14 10 11 8 5 4 4 5 5 3 2 4 3 3 3
24 24 26 27 26 25 23 23 20 15 14 13 13 13 15 13 18 21 20 14 11 10 11 10 10 9 10 10 11 15 15 11 6 7 5 4 5 5 2 4 5 4 1
18 27 27 24 24 23 23 22 20 19 16 13 12 13 14 14 19 19 15 12 11 12 10 10 12 8 12 14 11 11 14 12 11 8 5 3 6 5 3 5 6 4 2
27 22 23 24 24 22 22 22 21 20 18 16 14 14 14 16 17 16 16 16 15 13 13 13 14 11 12 15 14 12 14 14 12 10 7 6 7 7 4 5 4 4 2
17 22 23 26 24 23 23 22 21 21 20 21 22 23 22 22 22 24 22 20 19 16 14 15 14 12 12 18 16 16 15 13 12 12 9 10 10 9 8 6 4 3 2
22 24 25 22 21 23 24 22 21 22 23 23 26 26 27 29 30 28 26 24 22 19 17 17 17 15 16 19 19 19 17 15 15 14 13 14 13 12 8 6 6 5 4
19 22 23 22 22 22 22 22 23 23 24 26 27 28 26 27 30 29 27 25 23 20 17 15 16 12 14 20 21 20 19 18 17 16 15 19 18 15 11 9 8 9 6
13 14 15 16 17 20 21 22 24 25 26 29 30 27 28 31 32 31 30 26 24 23 21 19 19 15 19 19 20 19 17 18 17 17 17 17 24 20 16 14 12 11 9
7 2 11 17 20 20 23 24 25 27 26 27 29 29 31 32 32 33 31 27 26 25 24 25 26 24 21 20 19 21 21 22 22 21 19 17 24 21 18 16 15 13 11
3 6 3 9 19 18 18 20 18 18 14 11 12 13 17 21 24 27 26 23 24 25 24 23 27 28 26 22 21 22 20 16 18 20 19 19 24 23 21 18 16 15 14
9 7 9 11 10 1 7 8 8 11 10 10 11 12 11 12 15 18 21 23 23 21 23 23 29 30 30 28 26 25 25 22 20 21 20 24 27 26 24 23 19 18 17
Wind_Direction
189 193 199 205 216 225 221 221 226 228 216 215 206 182 155 127 155 207 231 214 214 220 224 228 227 241 247 240 243 225 215 211 212 224 277 227 227 225 228 245 242 253 250
190 196 206 211 211 204 201 187 203 218 193 188 201 197 188 185 165 197 225 203 206 220 227 226 233 234 243 244 240 239 226 213 214 217 131 205 187 239 231 254 262 260 254
195 202 210 201 196 193 186 192 193 192 172 165 179 175 167 178 178 190 202 189 194 209 209 213 226 234 237 238 251 239 228 230 237 256 265 256 310 229 250 238 258 253 260
198 195 184 185 189 187 178 171 161 157 155 147 145 144 150 157 152 154 159 160 165 180 182 189 198 211 209 218 227 233 232 217 196 219 241 244 247 234 241 257 266 265 272
193 188 187 188 181 174 171 168 162 156 152 149 143 144 138 144 139 133 149 140 139 130 135 121 113 111 111 117 127 111 105 123 125 148 160 168 144 120 114 92 244 249 157
191 190 183 177 171 170 167 165 159 155 164 160 155 154 150 145 149 150 136 152 150 145 154 134 132 134 128 119 110 108 122 128 165 136 158 150 164 167 144 108 114 335 307
188 187 183 175 176 176 171 170 168 161 159 161 160 161 158 162 180 177 163 135 148 146 154 150 147 146 157 170 161 160 102 127 207 222 218 202 184 171 169 186 255 273 274
183 182 185 182 178 172 168 169 166 164 162 163 162 162 165 172 190 169 158 146 150 148 164 164 164 155 195 288 285 271 257 189 225 233 243 229 194 200 286 302 296 285 279
176 179 181 185 175 172 175 173 167 163 159 167 169 165 162 154 162 165 160 154 152 153 168 173 198 181 298 307 291 250 214 178 127 147 174 193 229 264 272 238 243 281 287
176 183 183 184 183 182 181 169 164 161 165 169 168 167 159 149 165 173 160 148 161 163 183 187 189 230 304 306 269 208 187 189 215 201 194 205 114 133 111 103 119 138 163
186 189 189 194 184 182 179 169 164 163 166 168 173 175 170 148 143 183 178 173 157 175 191 192 194 228 311 309 181 193 203 234 254 262 268 207 157 157 147 103 57 52 284
181 176 189 194 185 179 173 166 167 166 171 174 169 167 166 154 141 165 161 161 162 205 182 176 175 286 327 46 107 136 111 39 119 141 124 128 134 139 133 99 102 21 323
166 158 221 198 185 175 166 165 167 175 174 173 175 180 184 176 161 169 153 140 164 187 172 176 204 222 188 176 153 136 107 90 113 132 131 132 136 130 120 120 106 68 53
173 182 180 176 166 166 167 169 176 182 183 183 188 193 198 200 192 182 156 158 176 187 187 190 162 171 191 186 175 173 124 136 131 146 144 146 142 154 144 103 58 57 83
210 168 159 162 162 165 173 182 188 196 198 199 211 214 197 208 208 190 196 202 209 204 183 203 227 232 208 219 219 209 198 183 157 144 171 157 157 170 155 148 126 114 96
168 161 165 165 169 175 176 179 194 201 207 211 203 206 218 242 224 212 212 212 216 215 227 234 236 225 238 242 240 233 209 206 216 196 165 161 165 177 139 174 173 126 125
165 165 166 172 171 179 193 190 177 188 198 203 211 226 231 240 219 212 204 213 227 230 226 219 216 227 224 204 199 208 209 206 217 200 185 195 193 173 152 150 165 178 181
197 182 177 174 177 182 191 197 195 191 193 198 214 220 221 220 204 203 207 213 216 224 237 227 220 231 212 204 196 204 206 198 194 201 206 217 193 195 192 183 170 192 196
194 174 182 187 192 185 190 200 205 207 207 204 195 196 193 191 200 206 212 219 234 238 232 224 224 234 232 213 211 206 198 202 198 203 230 224 198 200 194 199 194 193 219
194 200 193 191 186 182 189 191 196 206 212 212 211 213 199 199 207 216 220 227 234 237 236 233 230 242 248 224 214 204 198 197 206 222 240 208 198 213 228 226 217 215 262
203 202 200 193 194 197 199 196 200 207 216 221 228 231 223 219 225 228 230 233 239 244 247 242 232 255 236 225 225 214 213 224 230 227 231 226 217 218 215 217 226 234 267
211 205 194 194 203 204 209 214 218 221 226 230 239 240 238 230 236 240 240 242 244 245 244 235 228 236 228 220 213 213 224 234 234 236 245 230 222 216 218 221 228 245 263
197 192 202 212 212 215 219 219 220 225 229 233 234 232 234 232 234 237 240 241 242 239 230 231 231 236 223 224 226 229 240 240 240 234 251 244 217 209 213 221 231 245 248
125 140 236 235 227 225 225 234 245 235 236 240 236 226 233 236 238 238 236 236 237 241 244 232 232 234 233 237 238 238 241 249 249 241 249 253 213 214 219 221 221 236 245
101 52 20 250 240 234 234 240 238 204 201 193 195 208 220 228 234 235 233 233 240 250 245 240 230 233 234 238 240 241 237 234 232 230 234 231 218 215 220 223 229 232 234
130 100 83 79 77 137 219 214 180 174 153 162 193 210 215 228 241 239 231 233 248 251 249 241 231 233 233 237 235 238 235 237 232 230 235 232 223 219 219 222 221 231 243